Vertical_Velocity
-4 -2 -0 -2 -0 3 1 -3 -1 -2 0 -1 3 1 3 6 4 -2 0 -0 4 -1 -1 0 4 -1 1 3 -0 2 -1 1 1 -1 1 0 -1 -1 -0 -1 -2 -1 4
2 1 -2 -3 1 2 1 -1 0 -1 1 -2 -1 11 14 3 -1 -0 -3 -5 2 2 -1 7 3 6 0 7 2 -0 0 -1 -1 -0 -1 -0 -1 -2 -2 2 0 -1 1
-1 -1 0 -1 -1 -1 -1 2 0 -0 -1 0 3 21 13 28 6 3 5 0 2 3 1 4 4 8 4 4 -3 -1 -3 -1 -2 -2 -1 2 1 3 0 -2 -1 0 -1
-4 1 -0 -1 -0 -1 -1 -0 1 1 -2 -2 7 6 15 -56 14 4 -12 1 11 -1 4 4 9 8 6 0 3 -2 1 0 0 -2 -1 -1 -0 2 1 3 5 -1 -2
-1 -2 -1 0 -2 -3 1 2 -0 3 0 1 4 3 10 -1 6 -10 5 -1 13 3 2 -3 6 1 6 4 1 -1 0 2 -1 -1 -3 -2 0 2 -1 -2 -1 -1 -1
0 -2 1 -4 -2 -2 1 2 0 3 -3 -3 1 1 10 6 8 13 14 8 11 5 -0 -6 -25 -6 4 5 -1 -1 -2 -1 -1 -3 -2 -1 -1 5 2 4 0 0 -1
0 -2 -3 -2 -2 1 -1 1 8 -1 -1 -2 2 7 14 13 15 15 3 4 6 -4 4 5 -6 -5 -3 -2 -1 0 0 0 1 -2 -0 -1 5 3 2 -1 1 -1 1
1 -1 -4 -1 -2 -1 -0 1 -3 -2 2 2 11 -10 -6 21 15 15 8 4 -6 -1 3 -0 5 4 -6 3 -3 -1 -0 -1 -1 -1 -3 -2 -3 1 -2 -3 -1 4 5
-1 -1 -0 -1 -1 -2 -1 1 -3 -1 4 4 -7 2 7 -38 166 14 3 3 -2 -1 0 3 1 7 1 5 -2 1 2 -0 0 1 -1 -0 -2 -0 2 1 -0 -1 -1
-1 0 1 -2 1 -1 -4 0 4 -3 1 1 -1 3 5 -1 -27 14 3 -1 -4 3 7 -2 -1 -1 1 2 -2 -1 -1 0 1 0 0 0 1 0 -1 -0 -2 -1 -3
-1 2 -2 -4 -1 1 -3 -2 2 2 3 5 5 7 -5 2 -15 -12 2 -1 -10 -6 -4 3 -3 -3 -3 2 3 -1 1 1 1 1 3 1 -0 2 1 -1 1 0 -2
-3 0 -1 -3 -2 -2 -1 -3 1 -2 -7 -4 -4 4 3 7 -4 -2 -0 -11 -9 -3 5 7 -3 -0 1 0 1 2 -2 1 2 0 0 0 3 -1 -1 1 -1 0 -1
-2 0 1 -1 -1 -2 -1 -2 -3 -1 -2 1 -3 -6 -5 -2 -5 2 -2 -3 -7 -7 3 -1 -3 -2 3 2 1 1 0 -0 1 1 -2 -1 0 0 -1 -2 -0 -2 -1
-4 -1 1 1 -2 2 -1 -1 0 -0 -1 -2 -0 2 -3 -2 -1 3 2 -8 -1 4 5 1 -2 0 0 -3 3 1 -1 0 1 1 -1 -2 -2 1 0 1 0 -2 -1
-3 -5 -2 -1 -2 0 1 1 1 -1 0 2 0 -0 -1 -0 -8 -8 -10 -7 -1 5 2 -1 1 3 3 -0 4 1 1 -1 3 1 -2 -0 0 1 -0 -0 -1 1 -3
2 -4 -4 -2 -2 -2 -1 1 2 1 -2 -5 -1 0 4 0 1 -0 -0 2 3 1 -1 2 5 3 -3 0 2 3 -4 5 3 2 0 -2 -2 -1 1 -0 -0 -1 -1
3 8 -4 -3 2 -0 -0 1 2 4 1 -0 2 -2 -3 3 4 4 3 2 2 -1 2 -0 -1 -1 4 2 -1 0 2 5 -4 4 -0 2 -0 -1 -1 1 -0 2 0
2 -7 4 -0 -2 0 -0 1 -1 4 4 4 -0 -0 0 -3 -1 2 3 3 5 0 -0 2 -1 4 -0 1 -2 1 2 0 4 2 -1 0 -0 -1 -1 1 0 -1 2
4 1 -1 -1 3 -1 3 1 0 1 3 3 4 5 1 0 -0 -3 2 7 5 1 3 3 3 4 2 1 1 -0 2 3 2 -1 -0 0 0 -2 -2 2 1 -0 -0
4 3 7 4 2 2 2 2 3 3 1 2 2 3 5 2 3 3 -5 -3 -1 1 5 3 1 1 3 1 2 2 2 1 1 1 2 -0 0 2 -0 -2 2 0 -1
4 5 2 -3 1 -2 -0 3 6 -1 1 -1 -2 0 3 1 2 -4 -2 -1 -3 -4 -2 -3 3 3 -0 4 1 1 1 3 -0 2 -3 1 -1 2 1 -0 -1 -1 2
8 5 1 2 -1 -0 5 3 5 -1 3 4 5 5 7 6 0 -1 6 -2 4 -4 3 3 4 1 4 -0 -5 -0 -2 -2 0 1 -3 -2 -2 1 0 1 -0 -1 -2
5 2 2 3 -2 2 -0 2 4 10 8 3 -5 -2 -2 -1 3 6 -1 7 4 -2 -0 -2 -3 -7 -3 -0 1 -5 -5 -2 -0 -0 -1 -2 -1 0 -1 -3 1 2 -1
3 3 5 2 3 3 2 -1 -5 1 -3 -5 -2 1 2 -3 -2 4 5 -2 17 -4 -4 4 11 -8 8 -2 -2 3 -3 -1 -4 -2 -1 -2 -1 2 -0 1 -4 -3 1
4 7 6 5 5 2 5 4 5 -1 2 4 7 7 4 4 -4 4 1 5 -3 4 5 5 1 10 2 8 3 3 -0 2 -2 -2 -2 -2 1 -3 -2 -1 -0 1 -1
2 3 7 4 4 9 6 2 1 3 1 1 4 -2 2 1 4 -0 1 4 -5 8 4 1 12 -3 3 5 3 6 5 2 3 1 1 0 1 2 2 -1 -0 -1 -1
Height
1463 1464 1466 1468 1470 1472 1474 1475 1477 1479 1479 1481 1482 1481 1481 1484 1486 1486 1489 1490 1492 1492 1495 1496 1497 1499 1502 1502 1504 1506 1508 1510 1511 1514 1515 1516 1518 1519 1520 1523 1524 1525 1526
1463 1464 1465 1468 1470 1472 1473 1475 1476 1477 1478 1479 1480 1481 1482 1482 1487 1487 1489 1491 1493 1493 1495 1496 1498 1499 1503 1502 1505 1508 1509 1511 1514 1516 1517 1519 1520 1522 1523 1526 1526 1527 1529
1462 1463 1466 1467 1468 1471 1472 1474 1474 1475 1477 1478 1478 1482 1466 1482 1484 1489 1489 1489 1493 1494 1496 1498 1500 1500 1502 1504 1506 1509 1512 1514 1516 1518 1520 1521 1523 1525 1526 1528 1529 1530 1531
1462 1463 1464 1466 1468 1469 1471 1473 1473 1474 1476 1477 1478 1479 1480 1478 1484 1485 1488 1491 1492 1493 1496 1499 1502 1504 1504 1506 1508 1510 1514 1515 1518 1520 1522 1523 1525 1528 1530 1531 1532 1533 1534
1460 1461 1463 1464 1467 1468 1470 1471 1472 1473 1474 1475 1477 1480 1480 1483 1484 1484 1488 1492 1492 1492 1495 1498 1501 1504 1507 1509 1511 1514 1516 1518 1520 1522 1524 1526 1528 1529 1532 1533 1534 1536 1536
1458 1459 1461 1463 1465 1467 1468 1469 1470 1472 1472 1473 1475 1479 1481 1484 1485 1483 1486 1491 1492 1492 1495 1496 1497 1503 1509 1511 1514 1516 1518 1520 1522 1524 1527 1529 1530 1532 1534 1535 1537 1538 1539
1456 1458 1460 1462 1464 1466 1467 1467 1469 1469 1469 1471 1474 1477 1480 1483 1485 1485 1486 1489 1491 1494 1498 1499 1502 1505 1509 1514 1517 1519 1520 1523 1525 1527 1529 1531 1532 1534 1535 1537 1539 1540 1541
1455 1456 1459 1462 1463 1465 1464 1465 1465 1467 1468 1469 1473 1474 1477 1480 1482 1482 1484 1487 1492 1496 1499 1502 1504 1506 1510 1514 1518 1521 1522 1525 1527 1529 1531 1533 1534 1535 1537 1539 1541 1542 1543
1453 1456 1458 1460 1461 1463 1463 1464 1465 1465 1468 1468 1469 1472 1474 1468 1461 1475 1483 1487 1491 1497 1500 1503 1506 1508 1512 1514 1518 1521 1524 1526 1528 1529 1531 1533 1535 1536 1538 1540 1541 1542 1543
1453 1455 1457 1459 1460 1461 1462 1464 1464 1465 1468 1469 1470 1474 1475 1474 1470 1477 1480 1487 1491 1498 1503 1505 1508 1511 1514 1517 1519 1522 1524 1526 1528 1530 1532 1534 1536 1537 1538 1539 1541 1542 1543
1452 1454 1456 1458 1460 1461 1461 1463 1466 1465 1468 1469 1472 1474 1476 1477 1476 1482 1482 1486 1494 1499 1504 1507 1509 1512 1516 1518 1520 1522 1525 1527 1529 1531 1532 1534 1536 1538 1538 1540 1541 1542 1542
1450 1453 1455 1457 1459 1460 1460 1462 1464 1466 1466 1469 1471 1471 1475 1476 1478 1480 1488 1490 1495 1501 1505 1508 1510 1513 1517 1519 1521 1522 1526 1528 1530 1531 1533 1536 1537 1538 1539 1540 1541 1541 1542
1447 1451 1454 1455 1458 1459 1460 1461 1464 1467 1467 1469 1470 1472 1474 1475 1477 1480 1487 1490 1495 1502 1505 1507 1511 1514 1518 1519 1522 1523 1526 1528 1530 1532 1534 1535 1537 1538 1539 1540 1540 1541 1542
1443 1449 1453 1455 1457 1458 1460 1462 1464 1467 1468 1469 1471 1473 1475 1477 1480 1482 1487 1492 1498 1502 1506 1509 1512 1515 1518 1520 1522 1524 1526 1529 1531 1532 1534 1535 1538 1539 1539 1540 1540 1541 1542
1440 1445 1450 1453 1456 1459 1460 1462 1464 1467 1469 1472 1474 1476 1477 1479 1483 1487 1491 1495 1499 1503 1506 1509 1512 1514 1517 1521 1522 1524 1526 1530 1531 1532 1533 1535 1538 1539 1540 1540 1541 1541 1542
1436 1439 1445 1449 1453 1457 1460 1463 1465 1467 1469 1473 1475 1478 1481 1483 1486 1490 1495 1498 1501 1503 1507 1510 1512 1514 1518 1521 1523 1524 1528 1530 1532 1533 1534 1535 1537 1539 1540 1540 1541 1541 1542
1429 1434 1439 1445 1450 1454 1458 1462 1465 1467 1469 1472 1475 1478 1483 1486 1489 1492 1496 1499 1501 1505 1507 1509 1510 1513 1519 1520 1523 1526 1528 1530 1533 1533 1535 1537 1538 1540 1541 1541 1541 1542 1542
1425 1429 1434 1439 1445 1451 1455 1459 1463 1467 1470 1472 1475 1479 1483 1485 1490 1493 1497 1500 1502 1504 1508 1510 1512 1514 1518 1521 1524 1526 1528 1531 1533 1533 1535 1537 1538 1540 1541 1541 1541 1542 1542
1419 1425 1429 1434 1440 1446 1452 1457 1462 1466 1469 1472 1475 1478 1481 1485 1489 1492 1496 1498 1500 1504 1506 1508 1511 1515 1517 1521 1523 1526 1528 1530 1532 1534 1535 1536 1537 1539 1540 1541 1541 1541 1542
1414 1420 1426 1431 1437 1442 1448 1453 1458 1462 1466 1470 1473 1477 1480 1482 1484 1489 1494 1498 1501 1503 1504 1508 1512 1515 1517 1519 1521 1524 1526 1528 1531 1532 1533 1535 1537 1537 1538 1540 1540 1541 1541
1408 1415 1420 1426 1433 1437 1442 1447 1452 1456 1460 1465 1470 1474 1477 1480 1484 1486 1491 1495 1499 1502 1507 1511 1513 1514 1516 1518 1519 1523 1526 1528 1529 1530 1532 1533 1535 1536 1537 1538 1540 1541 1541
1402 1409 1415 1420 1426 1434 1439 1444 1448 1452 1457 1462 1465 1470 1473 1476 1480 1485 1488 1492 1496 1499 1504 1508 1511 1511 1514 1517 1519 1524 1527 1530 1529 1528 1530 1532 1534 1536 1536 1538 1539 1540 1540
1400 1405 1411 1416 1421 1430 1436 1440 1444 1449 1453 1456 1459 1465 1469 1474 1480 1483 1486 1488 1492 1496 1500 1504 1508 1512 1512 1514 1518 1521 1525 1526 1526 1527 1527 1531 1532 1533 1533 1536 1537 1537 1537
1396 1401 1408 1414 1420 1425 1431 1436 1441 1445 1448 1452 1457 1461 1465 1471 1475 1481 1485 1488 1492 1495 1499 1501 1505 1508 1510 1513 1516 1517 1520 1523 1523 1525 1525 1528 1529 1530 1531 1533 1534 1535 1535
1397 1401 1405 1411 1417 1423 1428 1433 1437 1441 1445 1450 1453 1457 1461 1465 1471 1476 1480 1484 1486 1493 1496 1500 1501 1504 1508 1511 1511 1513 1516 1518 1520 1521 1521 1523 1525 1527 1529 1530 1532 1532 1533
1397 1400 1405 1409 1413 1419 1424 1429 1434 1437 1441 1445 1448 1452 1455 1459 1464 1468 1475 1480 1485 1490 1492 1496 1500 1501 1503 1506 1509 1511 1513 1516 1516 1517 1518 1519 1522 1524 1525 1526 1529 1529 1530